OBJECT C, 67162

Orbit data source: Space-Track

You're viewing an Uncataloged Satellite

Recently launched and/or uncataloged satellites may have evolving metadata. Metadata may include but not limited to: Owner, Maufacturer, Bus, Motor, and Mission.

OBJECT C, 67162 is a satellite owned by Arianespace (ESA) that was launched on Wed, 17 Dec 2025 UTC launched from the French Guiana (FRGUI). Unknown objects in Earth's orbit typically refer to objects detected orbiting the Earth but have not yet been identified or cataloged. These objects could be anything from previously untracked satellites, spent rocket stages, debris from satellite collisions, or even natural meteoroids temporarily captured by Earth's gravity.

Loading next visibility...
Identifier
67162, 2025-302C
Orbit
Active
Country
Flag of ESAESA
Related business
Manufacturer
ARIB
Mission
Spacecraft
Bus & Motor
ULPM, VINCI
Mass
6,000 kg wet, 6,000 kg dry
Launch date (UTC)
2025-12-17 (5 days ago)
Launch vehicle
Unknown
Launch site
French Guiana (FRGUI)
Object type
Unknown
Shape & HBR
Unknown
Radar Cross Section
RCS unknown

Expand to show TLE details & history
Last TLE update: 2 days ago

TLE from 2 days ago
0 OBJECT C
1 67162U 25302C   25353.30035962 -.00000005  00000-0  00000-0 0  9996
2 67162  54.2437 107.2220 0000256 160.7324 199.2296  1.73130298    89
Epoch: 2025-12-19T07:12Z
TLE epoch observation values (Epoch: 2025-12-19T07:12:31.071Z)
Latitude
0.00003°
Longitude
-89.06134°
Altitude
22,919.592 km
Speed
3.689 km/s
True Right ascension
07h 08m 50s
True Declination
0° 00' 00"
Sunlit
Object was in daylight at epoch
Visualization orbit readout
Latitude
Unknown
Longitude
Unknown
Altitude
Unknown
Speed
Unknown
Apparent Right ascension
Unknown
Apparent Declination
Unknown
Sunlit
N/A
Visualization observer readout
Local Sidereal Time
12:14:28
Azimuth
Unknown
Elevation
Unknown
Doppler factor
Unknown
Orbital elements
Apogee altitude
22,919.423 km
Perigee altitude
22,917.923 km
Semi-major axis
29,296.81 km
Eccentricity
0.00003
Inclination
54.2437°
RAAN
107.222°
Arg. of periapsis
160.7324°
True anomaly
199.22863°
Mean anomaly
199.2296°
Eccentric anomaly
199.22912°
Mean motion
0.43283 °/min
Orbital period
831.74 mins
BSTAR
0
Loading maneuver chart data...
Computing Atmospheric mass density...
Loading historical data...
Loading historical data...
Loading historical data...
Loading historical data...
Loading historical data...
Loading historical data...
Loading historical data...
Other satellites on launch #302 in the year 2025 (2025-12-17 UTC)

Documentation

Showing up to 5 results
|